Weather History for Fort Drum, NY

Change the Weather History Date:

Thursday, January 17, 2013

  Actual Average Record
Temperature  
Mean Temperature 20 °F -  
Max Temperature 33 °F 20 °F 46 °F (2012)
Min Temperature 5 °F 4 °F -18 °F (2003)
Degree Days  
Heating Degree Days 46    
Moisture  
Dew Point 22 °F    
Average Humidity 83    
Maximum Humidity 100    
Minimum Humidity 48    
Precipitation  
Precipitation 0.01 in - - ()
Snow  
Snow 0.00 in - - ()
Snow Depth 2.00 in    
Sea Level Pressure  
Sea Level Pressure 29.93 in    
Wind  
Wind Speed 12 mph (West)    
Max Wind Speed 20 mph    
Max Gust Speed 26 mph    
Visibility 7 miles    
Events Rain , Snow    
Averages and records for this station are not official NWS values.
T = Trace of Precipitation, MM = Missing Value Source: NWS Daily Summary

Daily Weather History Graph

Daily Weather History Graph

Search for Another Location

Airport:

Trip Planner

Search our weather history database for the weather conditions in past years. The results will help you decide how hot, cold, wet, or windy it might be!

Date:

Astronomy

Jan. 17, 2013 Rise Set
Actual Time 7:33 AM EST 4:53 PM EST
Civil Twilight 7:01 AM EST 5:25 PM EST
Nautical Twilight 6:25 AM EST 6:00 PM EST
Astronomical Twilight 5:51 AM EST 6:35 PM EST
Moon 10:23 AM EST (1/17) 11:59 PM EST (1/17)
Length of Visible Light 10h 23m
Length of Day
9h 20m
Waxing Crescent, 37% of the Moon is Illuminated
Jan 17
Waxing Crescent
Jan 18
First Quarter
Jan 26
Full
Feb 3
Last Quarter
Feb 10
New

Hourly Weather History & Observations

Time (EST) Temp. Windchill Dew Point Humidity Pressure Visibility Wind Dir Wind Speed Gust Speed Precip Events Conditions
12:09 AM 33.8 °F 24.3 °F 28.4 °F 81% 29.79 in 10.0 mi West 13.8 mph 20.7 mph N/A Rain Light Rain
12:18 AM 33.8 °F 23.9 °F 28.4 °F 81% 29.79 in 7.0 mi WSW 15.0 mph 26.5 mph N/A Snow Light Snow
12:21 AM 33.8 °F 24.3 °F 28.4 °F 81% 29.79 in 7.0 mi West 13.8 mph 26.5 mph N/A Snow Light Snow
12:23 AM 33.8 °F 25.8 °F 28.4 °F 81% 29.80 in 7.0 mi West 10.4 mph 26.5 mph N/A Snow Light Snow
12:26 AM 33.8 °F 23.2 °F 28.4 °F 81% 29.79 in 10.0 mi West 17.3 mph 26.5 mph N/A Snow Light Snow
12:28 AM 33.8 °F 25.3 °F 28.4 °F 81% 29.79 in 10.0 mi West 11.5 mph 23.0 mph N/A Rain Light Rain
12:55 AM 32.9 °F 23.2 °F 30.2 °F 90% 29.81 in 4.0 mi WSW 13.8 mph 21.9 mph 0.00 in Snow Light Snow
12:56 AM 32.0 °F 22.1 °F 30.2 °F 93% 29.81 in 4.0 mi WSW 13.8 mph 21.9 mph N/A Snow Light Snow
1:15 AM 32.0 °F 21.6 °F 30.2 °F 93% 29.81 in 3.0 mi WSW 15.0 mph 19.6 mph N/A Snow Light Snow
1:19 AM 32.0 °F 21.6 °F 30.2 °F 93% 29.81 in 2.5 mi West 15.0 mph 19.6 mph N/A Snow Light Snow
1:23 AM 32.0 °F 21.6 °F 30.2 °F 93% 29.82 in 2.5 mi West 15.0 mph 20.7 mph N/A Snow Light Snow
1:33 AM 32.0 °F 23.6 °F 32.0 °F 100% 29.81 in 3.0 mi West 10.4 mph 20.7 mph N/A Snow Light Snow
1:45 AM 32.0 °F 24.2 °F 32.0 °F 100% 29.82 in 3.0 mi WSW 9.2 mph - N/A Snow Light Snow
1:46 AM 32.0 °F 23.6 °F 32.0 °F 100% 29.82 in 3.0 mi WSW 10.4 mph - N/A Snow Light Snow
1:53 AM 32.0 °F 23.6 °F 32.0 °F 100% 29.83 in 2.5 mi West 10.4 mph - N/A Snow Light Snow
1:54 AM 32.0 °F 22.5 °F 32.0 °F 100% 29.83 in 2.5 mi West 12.7 mph - N/A Snow Light Snow
1:55 AM 31.8 °F 22.8 °F 31.6 °F 99% 29.83 in 2.5 mi WSW 11.5 mph - 0.00 in Snow Light Snow
1:59 AM 32.0 °F 22.5 °F 32.0 °F 100% 29.83 in 3.0 mi WSW 12.7 mph 20.7 mph N/A Snow Light Snow
2:02 AM 32.0 °F 23.6 °F 32.0 °F 100% 29.83 in 3.0 mi WSW 10.4 mph 20.7 mph N/A Snow Light Snow
2:11 AM 32.0 °F 23.0 °F 32.0 °F 100% 29.83 in 3.0 mi West 11.5 mph 18.4 mph N/A Snow Light Snow
2:23 AM 32.0 °F 23.0 °F 32.0 °F 100% 29.83 in 3.0 mi West 11.5 mph - N/A Snow Light Snow
2:26 AM 32.0 °F 21.6 °F 32.0 °F 100% 29.83 in 3.0 mi WSW 15.0 mph 25.3 mph N/A Snow Light Snow
2:35 AM 32.0 °F 23.0 °F 32.0 °F 100% 29.84 in 3.0 mi WSW 11.5 mph 25.3 mph N/A Snow Light Snow
2:36 AM 32.0 °F 22.5 °F 32.0 °F 100% 29.84 in 3.0 mi WSW 12.7 mph 24.2 mph N/A Snow Light Snow
2:42 AM 32.0 °F 22.5 °F 32.0 °F 100% 29.84 in 3.0 mi WSW 12.7 mph - N/A Snow Light Snow
2:43 AM 32.0 °F 22.5 °F 32.0 °F 100% 29.84 in 3.0 mi WSW 12.7 mph 19.6 mph N/A Snow Light Snow
2:47 AM 32.0 °F 23.0 °F 32.0 °F 100% 29.84 in 3.0 mi WSW 11.5 mph 19.6 mph N/A Snow Light Snow
2:49 AM 32.0 °F 22.1 °F 32.0 °F 100% 29.84 in 3.0 mi WSW 13.8 mph 20.7 mph N/A Snow Light Snow
2:52 AM 32.0 °F 22.5 °F 32.0 °F 100% 29.84 in 4.0 mi WSW 12.7 mph 20.7 mph N/A Snow Light Snow
2:54 AM 32.0 °F 22.5 °F 32.0 °F 100% 29.84 in 4.0 mi West 12.7 mph 20.7 mph N/A Snow Light Snow
2:55 AM 32.0 °F 23.0 °F 31.6 °F 99% 29.84 in 4.0 mi West 11.5 mph 20.7 mph 0.00 in Snow Light Snow
2:59 AM 32.0 °F 23.0 °F 32.0 °F 100% 29.84 in 6.0 mi WSW 11.5 mph - N/A Snow Light Snow
3:00 AM 32.0 °F 23.6 °F 32.0 °F 100% 29.84 in 6.0 mi WSW 10.4 mph - N/A Snow Light Snow
3:02 AM 32.0 °F 22.5 °F 32.0 °F 100% 29.84 in 6.0 mi West 12.7 mph - N/A Snow Light Snow
3:18 AM 32.0 °F 24.2 °F 32.0 °F 100% 29.84 in 5.0 mi WSW 9.2 mph 18.4 mph N/A Snow Light Snow
3:19 AM 32.0 °F 22.5 °F 32.0 °F 100% 29.84 in 5.0 mi WSW 12.7 mph 21.9 mph N/A Snow Light Snow
3:21 AM 32.0 °F 22.1 °F 32.0 °F 100% 29.84 in 5.0 mi WSW 13.8 mph 21.9 mph N/A Snow Light Snow
3:27 AM 32.0 °F 22.1 °F 32.0 °F 100% 29.84 in 4.0 mi WSW 13.8 mph 21.9 mph N/A Snow Light Snow
3:29 AM 32.0 °F 22.1 °F 32.0 °F 100% 29.84 in 4.0 mi WSW 13.8 mph 21.9 mph N/A Snow Light Snow
3:37 AM 32.0 °F 23.6 °F 32.0 °F 100% 29.83 in 5.0 mi WSW 10.4 mph 21.9 mph N/A Snow Light Snow
3:55 AM 32.4 °F 23.0 °F 31.5 °F 96% 29.83 in 4.0 mi WSW 12.7 mph 20.7 mph 0.00 in Snow Light Snow
3:58 AM 32.0 °F 21.6 °F 32.0 °F 100% 29.83 in 4.0 mi West 15.0 mph 20.7 mph N/A Snow Light Snow
4:15 AM 32.0 °F 23.0 °F 32.0 °F 100% 29.84 in 6.0 mi West 11.5 mph 23.0 mph N/A Snow Light Snow
4:16 AM 32.0 °F 23.0 °F 32.0 °F 100% 29.84 in 6.0 mi WSW 11.5 mph 23.0 mph N/A Snow Light Snow
4:29 AM 33.8 °F 25.3 °F 30.2 °F 87% 29.84 in 10.0 mi West 11.5 mph 21.9 mph N/A Snow Light Snow
4:55 AM 33.4 °F 23.5 °F 30.0 °F 87% 29.85 in 10.0 mi West 15.0 mph 24.2 mph 0.00 in Rain Light Rain
5:00 AM 33.8 °F 24.8 °F 30.2 °F 87% 29.85 in 10.0 mi West 12.7 mph 24.2 mph N/A   Mostly Cloudy
5:17 AM 33.8 °F 25.3 °F 30.2 °F 87% 29.86 in 10.0 mi West 11.5 mph 21.9 mph N/A   Overcast
5:26 AM 33.8 °F 25.3 °F 30.2 °F 87% 29.86 in 10.0 mi West 11.5 mph 21.9 mph N/A   Overcast
5:27 AM 33.8 °F 24.8 °F 30.2 °F 87% 29.86 in 10.0 mi West 12.7 mph 21.9 mph N/A Rain Light Rain
5:46 AM 33.8 °F 26.4 °F 28.4 °F 81% 29.87 in 9.0 mi West 9.2 mph - N/A Snow Light Snow
5:53 AM 33.8 °F 24.3 °F 28.4 °F 81% 29.87 in 10.0 mi West 13.8 mph 21.9 mph N/A   Overcast
5:55 AM 33.3 °F 25.7 °F 27.7 °F 80% 29.88 in 10.0 mi West 9.2 mph 21.9 mph 0.01 in   Overcast
6:09 AM 33.8 °F 24.8 °F 26.6 °F 75% 29.89 in 10.0 mi West 12.7 mph 19.6 mph N/A Snow Light Snow
6:43 AM 32.0 °F 24.8 °F 26.6 °F 80% 29.91 in 10.0 mi WNW 8.1 mph - N/A Rain Light Rain
6:45 AM 32.0 °F 25.6 °F 26.6 °F 80% 29.91 in 10.0 mi WNW 6.9 mph - N/A   Overcast
6:49 AM 32.0 °F 24.8 °F 26.6 °F 80% 29.91 in 10.0 mi West 8.1 mph - N/A   Overcast
6:55 AM 32.2 °F 24.4 °F 27.0 °F 81% 29.91 in 10.0 mi WNW 9.2 mph - 0.00 in   Overcast
6:56 AM 32.2 °F 25.0 °F 27.0 °F 81% 29.96 in 10.0 mi WNW 8.1 mph - 0.00 in   Overcast
7:05 AM 32.0 °F 20.1 °F 26.6 °F 80% 29.94 in 10.0 mi North 19.6 mph 25.3 mph N/A   Overcast
7:18 AM 24.8 °F 13.4 °F 19.4 °F 80% 29.96 in 10.0 mi North 12.7 mph 19.6 mph N/A   Overcast
7:24 AM 24.8 °F 13.4 °F 19.4 °F 80% 29.97 in 10.0 mi North 12.7 mph 20.7 mph N/A   Overcast
7:55 AM 23.2 °F 10.8 °F 16.9 °F 77% 30.01 in 10.0 mi North 13.8 mph - 0.00 in   Overcast
7:59 AM 23.0 °F 11.1 °F 15.8 °F 74% 30.01 in 10.0 mi North 12.7 mph - N/A   Overcast
8:06 AM 23.0 °F 11.7 °F 14.0 °F 68% 30.02 in 10.0 mi North 11.5 mph 20.7 mph N/A   Overcast
8:13 AM 21.2 °F 7.8 °F 12.2 °F 68% 30.03 in 10.0 mi North 15.0 mph 20.7 mph N/A   Overcast
8:19 AM 21.2 °F 8.3 °F 10.4 °F 63% 30.04 in 10.0 mi North 13.8 mph - N/A   Overcast
8:21 AM 21.2 °F 7.3 °F 10.4 °F 63% 30.04 in 10.0 mi North 16.1 mph - N/A   Overcast
8:55 AM 20.8 °F 7.3 °F 9.1 °F 61% 30.08 in 10.0 mi North 15.0 mph - 0.00 in   Overcast
9:55 AM 17.4 °F 4.7 °F 8.4 °F 68% 30.13 in 10.0 mi North 11.5 mph - N/A   Overcast
10:55 AM 15.4 °F 2.3 °F 4.3 °F 61% 30.17 in 10.0 mi North 11.5 mph - N/A   Overcast
11:55 AM 13.8 °F 3.7 °F 3.2 °F 63% 30.17 in 10.0 mi NNE 6.9 mph - N/A   Overcast
12:55 PM 12.7 °F 3.6 °F 0.3 °F 58% 30.17 in 10.0 mi North 5.8 mph - N/A   Overcast
1:55 PM 12.9 °F 3.8 °F -0.8 °F 54% 30.17 in 10.0 mi NE 5.8 mph - N/A   Overcast
2:55 PM 13.6 °F 6.0 °F -2.7 °F 48% 30.16 in 10.0 mi NE 4.6 mph - N/A   Clear
3:55 PM 13.5 °F - -2.7 °F 49% 30.17 in 10.0 mi Calm Calm - N/A   Clear
4:55 PM 10.4 °F -0.4 °F -3.8 °F 53% 30.17 in 10.0 mi NNE 6.9 mph - N/A   Mostly Cloudy
5:55 PM 9.7 °F -2.4 °F -3.5 °F 55% 30.19 in 10.0 mi NE 8.1 mph - N/A   Mostly Cloudy
6:55 PM 9.9 °F 3.4 °F -3.5 °F 55% 30.21 in 10.0 mi East 3.5 mph - N/A   Overcast
7:44 PM 10.4 °F 0.8 °F -4.0 °F 52% 30.22 in 10.0 mi East 5.8 mph - N/A Snow Light Snow
7:53 PM 10.4 °F 2.2 °F -2.2 °F 57% 30.22 in 10.0 mi East 4.6 mph - N/A   Overcast
7:55 PM 10.0 °F 1.8 °F -2.9 °F 56% 30.22 in 10.0 mi East 4.6 mph - 0.00 in   Overcast
8:55 PM 9.3 °F -0.5 °F -2.7 °F 58% 30.22 in 10.0 mi NE 5.8 mph - N/A   Overcast
9:55 PM 7.3 °F -2.8 °F -3.8 °F 60% 30.21 in 10.0 mi NNE 5.8 mph - N/A   Partly Cloudy
10:55 PM 6.8 °F -3.5 °F -3.3 °F 63% 30.19 in 10.0 mi NNE 5.8 mph - N/A   Overcast
11:55 PM 5.5 °F -5.0 °F -3.5 °F 66% 30.20 in 10.0 mi NNE 5.8 mph - N/A   Mostly Cloudy